Time,TemperatureF,DewpointF,PressureIn,WindDirection,WindDirectionDegrees,WindSpeedMPH,WindSpeedGustMPH,Humidity,HourlyPrecipIn,Conditions,Clouds,dailyrainin,SoftwareType,DateUTC
2013-07-07 21:30:00,78.6,68.4,30.01,West,281,0.0,0.0,71,0.00,,,0.26,Wunderground v.1.15,2013-07-08 01:30:00,
2013-07-07 21:35:00,78.5,68.7,30.01,WSW,250,0.0,0.0,72,0.00,,,0.26,Wunderground v.1.15,2013-07-08 01:35:00,
2013-07-07 21:40:00,78.4,69.0,30.02,West,266,0.0,0.0,73,0.00,,,0.26,Wunderground v.1.15,2013-07-08 01:40:00,
2013-07-07 21:50:00,78.0,68.6,30.03,WNW,282,0.0,1.0,73,0.00,,,0.26,Wunderground v.1.15,2013-07-08 01:50:00,
2013-07-07 21:55:00,77.8,68.8,30.03,WNW,292,0.0,1.0,74,0.00,,,0.26,Wunderground v.1.15,2013-07-08 01:55:00,
2013-07-07 22:05:00,77.5,68.9,30.04,WSW,253,0.0,0.0,75,0.00,,,0.26,Wunderground v.1.15,2013-07-08 02:05:00,
2013-07-07 22:10:00,77.4,68.5,30.05,NNW,346,0.0,0.0,74,0.00,,,0.26,Wunderground v.1.15,2013-07-08 02:10:00,
2013-07-07 22:15:00,77.2,68.7,30.05,West,271,0.0,1.0,75,0.00,,,0.26,Wunderground v.1.15,2013-07-08 02:15:00,
2013-07-07 22:25:00,76.9,68.0,30.04,WNW,283,1.0,2.0,74,0.00,,,0.26,Wunderground v.1.15,2013-07-08 02:25:00,
2013-07-07 22:30:00,76.7,67.8,30.05,WNW,290,1.0,2.0,74,0.00,,,0.26,Wunderground v.1.15,2013-07-08 02:30:00,
2013-07-07 22:35:00,76.5,67.6,30.05,WSW,250,1.0,1.0,74,0.00,,,0.26,Wunderground v.1.15,2013-07-08 02:35:00,
2013-07-07 22:45:00,76.2,67.3,30.05,WNW,282,1.0,1.0,74,0.00,,,0.26,Wunderground v.1.15,2013-07-08 02:45:00,
2013-07-07 22:50:00,76.1,67.2,30.04,WNW,287,1.0,1.0,74,0.00,,,0.26,Wunderground v.1.15,2013-07-08 02:50:00,
2013-07-07 22:55:00,76.0,67.1,30.04,WNW,291,1.0,1.0,74,0.00,,,0.26,Wunderground v.1.15,2013-07-08 02:55:00,
2013-07-07 23:05:00,75.7,67.2,30.04,West,274,0.0,0.0,75,0.00,,,0.26,Wunderground v.1.15,2013-07-08 03:05:00,
2013-07-07 23:10:00,75.5,67.4,30.04,West,266,0.0,1.0,76,0.00,,,0.26,Wunderground v.1.15,2013-07-08 03:10:00,
2013-07-07 23:15:00,75.6,67.1,30.04,WSW,243,1.0,1.0,75,0.00,,,0.26,Wunderground v.1.15,2013-07-08 03:15:00,
2013-07-07 23:25:00,75.6,67.5,30.04,WNW,290,1.0,1.0,76,0.00,,,0.26,Wunderground v.1.15,2013-07-08 03:25:00,
2013-07-07 23:30:00,75.5,67.4,30.04,West,274,1.0,1.0,76,0.00,,,0.26,Wunderground v.1.15,2013-07-08 03:30:00,
2013-07-07 23:35:00,75.4,67.3,30.05,SE,146,1.0,2.0,76,0.00,,,0.26,Wunderground v.1.15,2013-07-08 03:35:00,
2013-07-07 23:40:00,75.4,67.3,30.04,South,182,1.0,2.0,76,0.00,,,0.26,Wunderground v.1.15,2013-07-08 03:40:00,
2013-07-07 23:50:00,75.2,67.1,30.04,WNW,293,1.0,1.0,76,0.00,,,0.26,Wunderground v.1.15,2013-07-08 03:50:00,
2013-07-07 23:55:00,75.0,66.9,30.04,West,278,1.0,1.0,76,0.00,,,0.26,Wunderground v.1.15,2013-07-08 03:55:00,